WMT7400 LUKK-LROP

Flight info

Callsign WMT7400
Flight time 0h 40m
Altitude 25000
Route LIPTA T34 KODRU DCT DENAK
Aircraft A321/M-SDE1E2E3FGIJ1J4RWXY/LB1

Departure

Time 2026-05-04 20:54
Airport Chişinău International Airport (LUKK)

Arrival

Time 2026-05-04 21:35
Airport Bucharest Henri Coandă International Airport (LROP)
Time Latitude Longitude Altitude Speed Heading
2026-05-04 20:30 46.93201 28.93543 318 ft 0 kts 277°
2026-05-04 20:48 46.93201 28.93542 318 ft 1 kts 277°
2026-05-04 20:48 46.93204 28.93515 319 ft 4 kts 277°
2026-05-04 20:48 46.93204 28.93474 320 ft 3 kts 251°
2026-05-04 20:49 46.93187 28.93452 320 ft 3 kts 199°
2026-05-04 20:49 46.93161 28.93461 320 ft 4 kts 138°
2026-05-04 20:49 46.93145 28.93518 319 ft 7 kts 97°
2026-05-04 20:49 46.93139 28.93619 316 ft 12 kts 96°
2026-05-04 20:50 46.93131 28.93714 314 ft 11 kts 98°
2026-05-04 20:50 46.93118 28.93842 311 ft 13 kts 98°
2026-05-04 20:50 46.93105 28.93988 308 ft 16 kts 97°
2026-05-04 20:50 46.93091 28.94166 303 ft 18 kts 96°
2026-05-04 20:51 46.93074 28.94366 299 ft 21 kts 99°
2026-05-04 20:51 46.93054 28.94589 294 ft 22 kts 96°
2026-05-04 20:51 46.93035 28.94823 289 ft 23 kts 97°
2026-05-04 20:51 46.93016 28.95049 284 ft 12 kts 97°
2026-05-04 20:52 46.92964 28.95105 283 ft 11 kts 173°
2026-05-04 20:52 46.92880 28.95111 282 ft 13 kts 177°
2026-05-04 20:52 46.92826 28.95109 281 ft 3 kts 232°
2026-05-04 20:52 46.92819 28.95077 282 ft 0 kts 268°
2026-05-04 20:53 46.92819 28.95072 282 ft 3 kts 268°
2026-05-04 20:53 46.92813 28.94761 288 ft 64 kts 268°
2026-05-04 20:54 46.92793 28.93782 313 ft 127 kts 268°
2026-05-04 20:54 46.92764 28.92246 508 ft 163 kts 268°
2026-05-04 20:54 46.92730 28.90578 1067 ft 169 kts 267°
2026-05-04 20:54 46.92675 28.88855 1713 ft 173 kts 265°
2026-05-04 20:55 46.92614 28.87054 2169 ft 185 kts 267°
2026-05-04 20:55 46.92577 28.85123 2648 ft 197 kts 269°
2026-05-04 20:55 46.92479 28.83085 3096 ft 210 kts 260°
2026-05-04 20:55 46.91964 28.81097 3491 ft 226 kts 238°
2026-05-04 20:56 46.90788 28.79522 3840 ft 244 kts 203°
2026-05-04 20:56 46.89086 28.78805 4284 ft 260 kts 192°
2026-05-04 20:56 46.87305 28.78036 4756 ft 279 kts 198°
2026-05-04 20:56 46.85464 28.76935 5396 ft 290 kts 204°
2026-05-04 20:57 46.83644 28.75615 6119 ft 297 kts 207°
2026-05-04 20:57 46.81825 28.74157 6838 ft 303 kts 209°
2026-05-04 20:57 46.80006 28.72621 7592 ft 308 kts 210°
2026-05-04 20:57 46.78162 28.71028 8370 ft 311 kts 211°
2026-05-04 20:58 46.76290 28.69397 9137 ft 314 kts 211°
2026-05-04 20:58 46.74419 28.67765 9869 ft 317 kts 211°
2026-05-04 20:58 46.72525 28.66111 10534 ft 323 kts 211°
2026-05-04 20:58 46.70569 28.64406 10898 ft 339 kts 211°
2026-05-04 20:59 46.68476 28.62587 11213 ft 356 kts 211°
2026-05-04 20:59 46.66291 28.60687 11604 ft 370 kts 211°
2026-05-04 20:59 46.64091 28.58777 12228 ft 374 kts 211°
2026-05-04 20:59 46.61901 28.56745 12898 ft 377 kts 215°
2026-05-04 21:00 46.59746 28.54517 13549 ft 381 kts 216°
2026-05-04 21:00 46.57576 28.52239 14156 ft 385 kts 216°
2026-05-04 21:00 46.55412 28.49965 14788 ft 389 kts 216°
2026-05-04 21:00 46.53213 28.47658 15395 ft 392 kts 216°
2026-05-04 21:01 46.51002 28.45346 15928 ft 396 kts 216°
2026-05-04 21:01 46.48750 28.42997 16534 ft 399 kts 216°
2026-05-04 21:01 46.46496 28.40647 17126 ft 402 kts 216°
2026-05-04 21:01 46.44212 28.38269 17705 ft 404 kts 216°
2026-05-04 21:02 46.41933 28.35900 18279 ft 407 kts 216°
2026-05-04 21:02 46.39641 28.33518 18841 ft 409 kts 215°
2026-05-04 21:02 46.37295 28.31087 19478 ft 409 kts 215°
2026-05-04 21:02 46.35016 28.28726 20217 ft 406 kts 215°
2026-05-04 21:03 46.32812 28.26443 20930 ft 402 kts 215°
2026-05-04 21:03 46.30542 28.24093 21623 ft 400 kts 215°
2026-05-04 21:03 46.28273 28.21744 22254 ft 399 kts 215°
2026-05-04 21:03 46.26036 28.19432 22847 ft 398 kts 215°
2026-05-04 21:04 46.23809 28.17134 23471 ft 396 kts 216°
2026-05-04 21:04 46.21576 28.14827 23995 ft 397 kts 216°
2026-05-04 21:04 46.19392 28.12362 24433 ft 399 kts 220°
2026-05-04 21:04 46.17336 28.09685 24862 ft 401 kts 225°
2026-05-04 21:05 46.15371 28.06846 25068 ft 402 kts 226°
2026-05-04 21:05 46.13415 28.03978 25071 ft 403 kts 226°
2026-05-04 21:05 46.11458 28.01104 25073 ft 403 kts 226°
2026-05-04 21:05 46.09481 27.98208 25075 ft 404 kts 226°
2026-05-04 21:06 46.07498 27.95313 25073 ft 404 kts 226°
2026-05-04 21:06 46.05537 27.92456 25070 ft 403 kts 226°
2026-05-04 21:06 46.03564 27.89587 25073 ft 403 kts 226°
2026-05-04 21:06 46.01581 27.86710 25069 ft 404 kts 226°
2026-05-04 21:07 45.99598 27.83835 25064 ft 403 kts 226°
2026-05-04 21:07 45.97642 27.81000 25061 ft 403 kts 226°
2026-05-04 21:07 45.95637 27.78100 25063 ft 403 kts 226°
2026-05-04 21:07 45.93663 27.75247 25052 ft 404 kts 226°
2026-05-04 21:08 45.91706 27.72421 25062 ft 403 kts 226°
2026-05-04 21:08 45.89707 27.69536 25058 ft 404 kts 226°
2026-05-04 21:08 45.87715 27.66667 25042 ft 404 kts 226°
2026-05-04 21:08 45.85738 27.63825 25048 ft 404 kts 226°
2026-05-04 21:09 45.83760 27.60982 25050 ft 403 kts 227°
2026-05-04 21:09 45.81782 27.58143 25059 ft 403 kts 226°
2026-05-04 21:09 45.79830 27.55342 25045 ft 401 kts 227°
2026-05-04 21:09 45.77889 27.52417 25053 ft 401 kts 229°
2026-05-04 21:10 45.76006 27.49481 25053 ft 400 kts 230°
2026-05-04 21:10 45.74143 27.46559 25051 ft 400 kts 230°
2026-05-04 21:10 45.72278 27.43646 25062 ft 399 kts 230°
2026-05-04 21:10 45.70388 27.40703 25057 ft 400 kts 230°
2026-05-04 21:11 45.68512 27.37795 25055 ft 400 kts 229°
2026-05-04 21:11 45.66633 27.34891 25049 ft 399 kts 229°
2026-05-04 21:11 45.64753 27.31990 25063 ft 399 kts 229°
2026-05-04 21:11 45.62854 27.29061 25056 ft 399 kts 229°
2026-05-04 21:12 45.60954 27.26139 25056 ft 399 kts 229°
2026-05-04 21:12 45.59070 27.23241 25059 ft 398 kts 229°
2026-05-04 21:12 45.57200 27.20369 25055 ft 399 kts 229°
2026-05-04 21:12 45.55315 27.17478 25060 ft 399 kts 229°
2026-05-04 21:13 45.53423 27.14579 25060 ft 398 kts 229°
2026-05-04 21:13 45.51535 27.11689 25061 ft 398 kts 229°
2026-05-04 21:13 45.49670 27.08837 25063 ft 399 kts 229°
2026-05-04 21:13 45.47776 27.05943 25057 ft 398 kts 229°
2026-05-04 21:14 45.45876 27.03045 25064 ft 399 kts 229°
2026-05-04 21:14 45.43980 27.00155 25062 ft 399 kts 229°
2026-05-04 21:14 45.42097 26.97290 25063 ft 398 kts 229°
2026-05-04 21:14 45.40200 26.94403 25061 ft 399 kts 229°
2026-05-04 21:15 45.38321 26.91548 25059 ft 398 kts 229°
2026-05-04 21:15 45.36439 26.88690 25064 ft 398 kts 229°
2026-05-04 21:15 45.34527 26.85792 25054 ft 398 kts 229°
2026-05-04 21:15 45.32637 26.82930 25063 ft 399 kts 229°
2026-05-04 21:16 45.30748 26.80071 25060 ft 398 kts 229°
2026-05-04 21:16 45.28841 26.77189 25056 ft 398 kts 229°
2026-05-04 21:16 45.26959 26.74348 25063 ft 397 kts 229°
2026-05-04 21:16 45.25084 26.71520 25059 ft 397 kts 229°
2026-05-04 21:17 45.23184 26.68657 25049 ft 397 kts 229°
2026-05-04 21:17 45.21306 26.65832 25062 ft 396 kts 229°
2026-05-04 21:17 45.19399 26.62963 25059 ft 396 kts 229°
2026-05-04 21:17 45.17528 26.60151 25059 ft 396 kts 229°
2026-05-04 21:18 45.15630 26.57302 24998 ft 397 kts 229°
2026-05-04 21:18 45.13761 26.54498 24556 ft 397 kts 229°
2026-05-04 21:18 45.11857 26.51643 23993 ft 398 kts 229°
2026-05-04 21:18 45.09965 26.48813 23375 ft 400 kts 229°
2026-05-04 21:19 45.08046 26.45944 22715 ft 403 kts 229°
2026-05-04 21:19 45.06116 26.43063 22081 ft 405 kts 228°
2026-05-04 21:19 45.04181 26.40178 21424 ft 408 kts 228°
2026-05-04 21:19 45.02238 26.37284 20780 ft 410 kts 228°
2026-05-04 21:20 45.00249 26.34325 20185 ft 411 kts 227°
2026-05-04 21:20 44.98291 26.31416 19794 ft 405 kts 227°
2026-05-04 21:20 44.96373 26.28569 19248 ft 403 kts 227°
2026-05-04 21:20 44.94443 26.25706 18558 ft 405 kts 227°
2026-05-04 21:21 44.92515 26.22846 18014 ft 401 kts 227°
2026-05-04 21:21 44.90597 26.20007 17385 ft 399 kts 227°
2026-05-04 21:21 44.88690 26.17188 16740 ft 396 kts 226°
2026-05-04 21:21 44.86802 26.14399 15981 ft 397 kts 226°
2026-05-04 21:22 44.84892 26.11581 14945 ft 405 kts 226°
2026-05-04 21:22 44.82941 26.08705 14037 ft 408 kts 226°
2026-05-04 21:22 44.80997 26.05843 13315 ft 405 kts 226°
2026-05-04 21:22 44.79057 26.02991 12632 ft 400 kts 226°
2026-05-04 21:23 44.77148 26.00186 11978 ft 396 kts 227°
2026-05-04 21:23 44.75256 25.97409 11321 ft 392 kts 227°
2026-05-04 21:23 44.73383 25.94662 10648 ft 389 kts 227°
2026-05-04 21:23 44.71514 25.91922 9991 ft 385 kts 227°
2026-05-04 21:24 44.69690 25.89251 9422 ft 375 kts 227°
2026-05-04 21:24 44.67922 25.86668 8984 ft 361 kts 227°
2026-05-04 21:24 44.66207 25.84163 8556 ft 348 kts 227°
2026-05-04 21:24 44.64598 25.81733 8126 ft 336 kts 233°
2026-05-04 21:25 44.63620 25.78856 7670 ft 318 kts 263°
2026-05-04 21:25 44.63388 25.75860 7257 ft 307 kts 269°
2026-05-04 21:25 44.63223 25.72921 6828 ft 300 kts 269°
2026-05-04 21:25 44.63038 25.70016 6395 ft 293 kts 268°
2026-05-04 21:26 44.62838 25.67239 6060 ft 284 kts 268°
2026-05-04 21:26 44.62632 25.64522 5846 ft 277 kts 268°
2026-05-04 21:26 44.62262 25.61916 5665 ft 273 kts 249°
2026-05-04 21:26 44.61157 25.59787 5491 ft 268 kts 219°
2026-05-04 21:27 44.59523 25.58672 5331 ft 259 kts 189°
2026-05-04 21:27 44.57764 25.58475 5202 ft 250 kts 179°
2026-05-04 21:27 44.56068 25.58670 5047 ft 240 kts 159°
2026-05-04 21:27 44.54718 25.59849 4895 ft 225 kts 127°
2026-05-04 21:28 44.53906 25.61645 4703 ft 214 kts 106°
2026-05-04 21:28 44.53476 25.63624 4438 ft 212 kts 98°
2026-05-04 21:28 44.53298 25.65662 4158 ft 210 kts 88°
2026-05-04 21:28 44.53368 25.67679 3899 ft 208 kts 80°
2026-05-04 21:29 44.53577 25.69703 3643 ft 208 kts 79°
2026-05-04 21:29 44.53786 25.71687 3392 ft 208 kts 79°
2026-05-04 21:29 44.53976 25.73709 3140 ft 208 kts 81°
2026-05-04 21:29 44.54143 25.75719 2909 ft 207 kts 82°
2026-05-04 21:30 44.54293 25.77708 2736 ft 203 kts 82°
2026-05-04 21:30 44.54431 25.79656 2553 ft 201 kts 82°
2026-05-04 21:30 44.54568 25.81608 2513 ft 201 kts 82°
2026-05-04 21:30 44.54704 25.83571 2507 ft 201 kts 82°
2026-05-04 21:31 44.54978 25.87471 2493 ft 196 kts 82°
2026-05-04 21:31 44.55107 25.89286 2563 ft 183 kts 82°
2026-05-04 21:31 44.55234 25.91051 2424 ft 182 kts 82°
2026-05-04 21:32 44.55362 25.92808 2201 ft 177 kts 82°
2026-05-04 21:32 44.55486 25.94485 1988 ft 172 kts 82°
2026-05-04 21:32 44.55603 25.96090 1774 ft 161 kts 82°
2026-05-04 21:32 44.55718 25.97629 1625 ft 159 kts 83°
2026-05-04 21:33 44.55829 25.99132 1421 ft 149 kts 83°
2026-05-04 21:33 44.55934 26.00550 1238 ft 146 kts 83°
2026-05-04 21:33 44.56043 26.01971 1062 ft 145 kts 83°
2026-05-04 21:33 44.56142 26.03380 893 ft 145 kts 83°
2026-05-04 21:34 44.56247 26.04783 711 ft 145 kts 82°
2026-05-04 21:34 44.56358 26.06168 551 ft 144 kts 83°
2026-05-04 21:34 44.56459 26.07574 382 ft 144 kts 83°
2026-05-04 21:34 44.56558 26.08927 314 ft 125 kts 82°
2026-05-04 21:35 44.56636 26.09895 308 ft 75 kts 84°
2026-05-04 21:35 44.56675 26.10419 306 ft 44 kts 84°
2026-05-04 21:35 44.56694 26.10661 305 ft 19 kts 80°
2026-05-04 21:35 44.56743 26.10756 305 ft 10 kts 13°
2026-05-04 21:36 44.56817 26.10754 305 ft 11 kts 356°
2026-05-04 21:36 44.56897 26.10742 305 ft 11 kts 354°
2026-05-04 21:36 44.56979 26.10721 306 ft 12 kts 334°
2026-05-04 21:36 44.57037 26.10634 306 ft 12 kts 302°
2026-05-04 21:37 44.57071 26.10521 307 ft 12 kts 272°
2026-05-04 21:37 44.57063 26.10396 307 ft 13 kts 263°
2026-05-04 21:37 44.57053 26.10268 308 ft 13 kts 264°
2026-05-04 21:37 44.57043 26.10134 308 ft 13 kts 264°
2026-05-04 21:38 44.57032 26.10001 309 ft 13 kts 263°
2026-05-04 21:38 44.57022 26.09867 309 ft 14 kts 263°
2026-05-04 21:38 44.57011 26.09731 310 ft 14 kts 264°
2026-05-04 21:38 44.57001 26.09595 311 ft 14 kts 264°
2026-05-04 21:39 44.56990 26.09458 312 ft 14 kts 264°
2026-05-04 21:39 44.56980 26.09324 313 ft 13 kts 264°
2026-05-04 21:39 44.56970 26.09187 314 ft 14 kts 264°
2026-05-04 21:39 44.56959 26.09053 315 ft 13 kts 264°
2026-05-04 21:40 44.56949 26.08918 315 ft 13 kts 264°
2026-05-04 21:40 44.56939 26.08786 316 ft 13 kts 264°
2026-05-04 21:40 44.56930 26.08664 317 ft 12 kts 265°
2026-05-04 21:40 44.56949 26.08562 317 ft 11 kts 320°
2026-05-04 21:41 44.57022 26.08535 318 ft 10 kts 354°
2026-05-04 21:41 44.57100 26.08523 318 ft 13 kts 353°
2026-05-04 21:41 44.57198 26.08508 318 ft 12 kts 352°
2026-05-04 21:41 44.57233 26.08441 319 ft 9 kts 264°
2026-05-04 21:42 44.57225 26.08347 319 ft 9 kts 262°
2026-05-04 21:42 44.57217 26.08258 319 ft 9 kts 263°
2026-05-04 21:42 44.57210 26.08177 319 ft 5 kts 257°
2026-05-04 21:42 44.57178 26.08161 319 ft 5 kts 176°
2026-05-04 21:43 44.57155 26.08164 319 ft 1 kts 174°
2026-05-04 21:43 44.57153 26.08165 319 ft 0 kts 174°